{"data":{"norad_id":68134,"intl_designator":"2026-047F","name":"HULIANWANG DIGUI-160","alt_names":[],"object_type":"PAYLOAD","status":"ACTIVE","operator":null,"country":"PRC","launch_date":"2026-03-12","launch_site_code":"WSC","launch_vehicle":null,"mission":null,"orbit_class":"UNKNOWN","rcs_meters":null,"size_class":null,"mass_kg":null,"dimensions":null,"purposes":[],"wikipedia_slug":null,"has_3d_model":false,"image_url":null,"decayed_at":null,"tle_current":{"epoch":"2026-09-20T17:34:01.770816Z","epoch_age_seconds":58980,"freshness":"FRESH","line1":"1 68134U 26047F   26263.73196494 -.00000104  00000+0  43829-4 0  9998","line2":"2 68134  50.0069  73.3328 0001103  74.3967 285.7027 13.29329874 25771","mean_motion":13.29329874,"eccentricity":0.0001103,"inclination_deg":50.0069,"raan_deg":73.3328,"arg_perigee_deg":74.3967,"mean_anomaly_deg":285.7027,"bstar":4.3829e-5,"rev_number":2577,"period_min":108.32525682034,"perigee_km":1148.4616718639,"apogee_km":1150.1222226897,"semimajor_km":7527.4289472768,"source":"CELESTRAK","updated_at":"2026-09-21T09:00:17.095068Z"}}}